DELTA 1 DEB, 10864

Orbit data source: Space-Track

DELTA 1 DEB, 10864 is space debris in LEO originally from a launch on Thu, 29 Jul 1976 UTC launched from the Air Force Western Test Range (AFWTR). Debris objects in space refer to the collection of defunct objects orbiting the Earth. Examples of debris include non-operational satellites, rocket bodies, and fragments generated from explosions, collisions, or faulty payload assembly.

Loading next visibility...
Identifier
10864, 1976-077CS
Orbit
LEO
Country
Flag of USUS
Related business
Manufacturer
Unknown
Mission
Spacecraft
Bus & Motor
Unknown
Mass
Unknown
Launch date (UTC)
1976-07-29 (49 years ago)
Launch vehicle
Unknown
Launch site
Air Force Western Test Range (AFWTR)
Object type
Payload
Rocket body
Debris
Shape & HBR
Unknown shape, 0.2 m
Radar Cross Section
Medium (>0.1 m² and <1 m²)

Expand to show TLE details & history
Last TLE update: 1 day ago

TLE from 1 day ago
0 DELTA 1 DEB
1 10864U 76077CS  25346.83286566 -.00000110  00000-0 -10483-2 0  9992
2 10864 101.1048  95.2272 0375528 323.7902 190.0054 11.75762202109438
Epoch: 2025-12-12T19:59Z
TLE epoch observation values (Epoch: 2025-12-12T19:59:19.593Z)
Latitude
26.40589°
Longitude
-100.80589°
Altitude
2,096.586 km
Speed
6.733 km/s
True Right ascension
18h 43m 10s
True Declination
26° 17' 27"
Sunlit
Object was in daylight at epoch
Visualization orbit readout
Latitude
Unknown
Longitude
Unknown
Altitude
Unknown
Speed
Unknown
Apparent Right ascension
Unknown
Apparent Declination
Unknown
Sunlit
N/A
Visualization observer readout
Local Sidereal Time
05:56:26
Azimuth
Unknown
Elevation
Unknown
Doppler factor
Unknown
Orbital elements
Apogee altitude
2,095.536 km
Perigee altitude
1,482.15 km
Semi-major axis
8,166.98 km
Eccentricity
0.03755
Inclination
101.1048°
RAAN
95.2272°
Arg. of periapsis
323.7902°
True anomaly
189.29086°
Mean anomaly
190.0054°
Eccentric anomaly
189.64491°
Mean motion
2.9407 °/min
Orbital period
122.42 mins
BSTAR
-0.0010483
Loading maneuver chart data...
Computing Atmospheric mass density...
Loading historical data...
Loading historical data...
Loading historical data...
Loading historical data...
Loading historical data...
Loading historical data...
Loading historical data...

Documentation

Showing up to 5 results
|